This demonstration page uses our WeatherBlox Daily Observations layout. Learn more.

Left ArrowRight Arrow

39.08367, -84.50855

Hourly Observations for December 17, 2016

Temp ( °F °C ) Dew Point ( °F °C ) Humidity (%) Winds ( mph kmh ) Pressure ( in mb ) Visibility ( mi km ) Precip ( " mm )
12:16 am 00:16 Cloudy with Light Rain 34 1 28 -2 81 81 S 13 20 29.80 1009 8 13 0.00 0.00
12:53 am 00:53 Cloudy with Light Rain 34 1.1 29 -1.7 82 82 S 8 13 29.77 1008 10 16 0.01 0.25
1:53 am 01:53 Cloudy with Light Rain 33 0.6 31 -0.6 92 92 S 5 7 29.75 1007 9 14 0.02 0.51
2:41 am 02:41 Cloudy with Rain 33 0.6 33 0.6 100 100 Calm 29.77 1008 3 4 0.04 1.02
2:53 am 02:53 Cloudy with Light Rain 33 0.6 33 0.6 100 100 Calm 29.75 1008 3 5 0.05 1.27
3:13 am 03:13 Cloudy with Rain 34 1.1 33 0.6 97 97 Calm 29.77 1008 4 6 0.02 0.51
3:51 am 03:51 Cloudy with Light Rain 36 2 34 1 93 93 SW 3 6 29.77 1008 7 11 0.06 1.52
3:52 am 03:52 Cloudy with Light Rain 35 1.7 34 1.1 96 96 SW 3 6 29.74 1007 7 11 0.06 1.52
3:59 am 03:59 Cloudy with Light Rain 35 1.7 34 1.1 96 96 Calm 29.74 1007 6 10 0.01 0.25
4:43 am 04:43 Cloudy with Light Rain 35 1.7 35 1.7 100 100 Calm 29.74 1007 5 8 0.02 0.51
4:53 am 04:53 Cloudy with Light Rain 36 2.2 35 1.7 97 97 Calm 29.71 1006 4 6 0.02 0.51
5:26 am 05:26 Cloudy with Light Rain 37 3 37 3 100 100 W 6 9 29.71 1006 4 6 0.00 0.00
5:37 am 05:37 Cloudy with Light Rain 38 3.3 38 3.3 100 100 SW 6 9 29.71 1006 6 10 0.01 0.25
5:53 am 05:53 Cloudy 40 4.4 40 4.4 100 100 SSW 6 9 29.70 1006 7 11 0.01 0.25
6:53 am 06:53 Cloudy with Light Rain 44 6.7 44 6.7 100 100 SSW 8 13 29.69 1006 9 14 0.02 0.51
7:53 am 07:53 Cloudy 48 8.9 47 8.3 96 96 S 13 20 29.69 1006 10 16 0.00 0.03
8:53 am 08:53 Cloudy 51 10.6 49 9.4 92 92 S 15 24 29.69 1005 10 16 0.00 0.03
9:53 am 09:53 Cloudy 53 11.7 50 10 89 89 S 17 28 29.70 1006 10 16 0.00 0.03
10:53 am 10:53 Cloudy with Light Rain 54 12.2 52 11.1 93 93 SSW 10 17 29.70 1006 9 14 0.00 0.03
11:53 am 11:53 Cloudy 57 13.9 54 12.2 90 90 SSW 20 31 29.67 1005 10 16 0.00 0.03
12:53 pm 12:53 Cloudy 59 15 56 13.3 90 90 SSW 14 22 29.64 1004 10 16 0.00 0.03
1:53 pm 13:53 Cloudy with Light Rain 60 15.6 57 13.9 90 90 SSW 16 26 29.63 1003 9 14 0.00 0.03
2:53 pm 14:53 Cloudy 62 16.7 58 14.4 86 86 SSW 16 26 29.62 1003 10 16 0.00 0.03
3:14 pm 15:14 Cloudy with Light Rain 61 16 57 14 88 88 SSW 14 22 29.62 1003 2 3 0.00 0.00
3:27 pm 15:27 Cloudy with Light Rain 61 16 57 14 88 88 S 10 17 29.62 1003 7 11 0.00 0.00
3:53 pm 15:53 Cloudy 60 15.6 58 14.4 93 93 SSW 12 19 29.63 1003 7 11 0.05 1.27
4:53 pm 16:53 Cloudy 61 16.1 59 15 93 93 S 9 15 29.62 1003 10 16 0.02 0.51
5:53 pm 17:53 Cloudy with Light Rain 61 16.1 59 15 93 93 SSW 12 19 29.62 1003 5 8 0.02 0.51
6:07 pm 18:07 Cloudy with Thunderstorms 60 15.6 59 15 96 96 SSW 12 19 29.62 1003 7 11 0.01 0.25
6:16 pm 18:16 Cloudy with Nearby Thunderstorms 61 16 61 16 100 100 SSW 10 17 29.62 1003 3 5 0.00 0.00
6:27 pm 18:27 Cloudy with Light Rain 61 16.1 60 15.6 97 97 SW 10 17 29.62 1003 6 10 0.09 2.29
6:48 pm 18:48 Cloudy with Thunderstorms 61 16 61 16 100 100 NW 7 11 29.62 1003 3 5 0.00 0.00
6:53 pm 18:53 Cloudy with Strong Thunderstorms 60 15.6 60 15.6 100 100 N 9 15 29.61 1003 2 3 0.19 4.83
6:55 pm 18:55 Cloudy with Strong Thunderstorms 58 14.4 58 14.4 100 100 NNW 16 26 29.62 1003 2 3 0.01 0.25
7:53 pm 19:53 Cloudy with Rain 49 9.4 48 8.9 97 97 Calm 29.67 1005 5 8 0.52 13.21
8:53 pm 20:53 Cloudy with Rain 47 8.3 47 8.3 100 100 NNE 3 6 29.66 1004 4 6 0.27 6.86
9:53 pm 21:53 Cloudy with Rain 46 7.8 45 7.2 96 96 ENE 8 13 29.59 1002 5 8 0.23 5.84
10:18 pm 22:18 Cloudy with Light Rain 45 7 45 7 100 100 NNW 9 15 29.68 1005 6 10 0.00 0.00
10:53 pm 22:53 Cloudy with Light Rain 40 4.4 38 3.3 93 93 N 10 17 29.63 1004 8 13 0.08 2.03
11:53 pm 23:53 Cloudy with Light Rain 37 2.8 36 2.2 96 96 NNW 8 13 29.68 1005 8 13 0.06 1.52

Powered by AerisWeather